Location: Contre
(49.7477°N, 2.0963°E)
Time: 17:28:24
(UTC+00:00)

ITUPSAT 1 - Visible Passes

Search period start: 26 May 2024 00:00
Search period end: 05 June 2024 00:00
Orbit: 694 x 707 km, 98.5° (Epoch: 25 May)

Date Brightness Start Highest point End Pass type
(mag) Time Alt. Az. Time Alt. Az. Time Alt. Az.
26 May ? 20:37:59 10° ENE 20:40:08 13° E 20:42:17 10° ESE visible
26 May ? 22:13:43 10° NNE 22:18:30 90° WNW 22:21:41 21° SSW visible
26 May ? 23:52:49 10° NNW 23:55:31 15° NW 23:58:13 10° W visible
27 May ? 21:18:34 10° NE 21:22:44 30° E 21:25:32 17° SE visible
27 May ? 22:56:05 10° N 23:00:30 39° WNW 23:04:22 13° SW visible
28 May ? 22:00:18 10° NNE 22:05:04 69° ESE 22:08:12 21° S visible
28 May ? 23:38:56 10° NNW 23:42:16 19° WNW 23:45:35 10° WSW visible
29 May ? 21:05:25 10° NE 21:09:11 23° E 21:12:03 14° SE visible
29 May ? 22:42:32 10° N 22:47:09 51° WNW 22:50:53 15° SW visible
30 May ? 21:46:56 10° NNE 21:51:35 52° E 21:54:43 20° S visible
30 May ? 23:25:11 10° N 23:28:58 24° WNW 23:32:46 10° WSW visible
31 May ? 20:52:25 10° NE 20:55:36 17° E 20:58:32 11° SE visible
31 May ? 22:29:00 10° N 22:33:45 68° WNW 22:37:23 17° SSW visible
01 Jun ? 00:08:49 10° NNW 00:10:33 12° NW 00:12:18 10° WNW visible
01 Jun ? 21:33:36 10° NNE 21:38:04 39° E 21:41:11 18° SSE visible
01 Jun ? 23:11:30 10° N 23:15:39 30° WNW 23:19:47 10° SW visible
02 Jun ? 20:39:42 10° ENE 20:41:57 13° E 20:44:13 10° ESE visible
02 Jun ? 22:15:31 10° NNE 22:20:18 88° WNW 22:23:51 18° SSW visible
02 Jun ? 23:54:37 10° NNW 23:57:18 15° NW 23:59:59 10° W visible
03 Jun ? 21:20:19 10° NNE 21:24:32 30° E 21:27:39 15° SSE visible
03 Jun ? 22:57:51 10° N 23:02:17 39° WNW 23:06:30 11° SW visible
04 Jun ? 22:02:03 10° NNE 22:06:49 71° ESE 22:10:18 18° S visible
04 Jun ? 23:40:42 10° NNW 23:44:00 19° WNW 23:47:19 10° WSW visible
